This demonstration page uses our WeatherBlox Daily Observations layout. Learn more.

Left ArrowRight Arrow

39.29038, -76.61219

Hourly Observations for October 11, 2016

Temp ( °F °C ) Dew Point ( °F °C ) Humidity (%) Winds ( mph kmh ) Pressure ( in mb ) Visibility ( mi km ) Precip ( " mm )
12:54 am 00:54 undefined 55 12.8 37 2.8 51 51 undefined N/A 30.40 1029 N/A 0.00 0.00
1:54 am 01:54 undefined 54 12.2 37 2.8 53 53 undefined N/A 30.41 1030 N/A 0.00 0.00
2:54 am 02:54 undefined 52 11.1 37 2.8 57 57 undefined N/A 30.41 1030 N/A 0.00 0.00
3:54 am 03:54 undefined 52 11.1 36 2.2 55 55 undefined N/A 30.42 1030 N/A 0.00 0.00
4:54 am 04:54 undefined 50 10 37 2.8 61 61 undefined N/A 30.42 1030 N/A 0.00 0.00
5:54 am 05:54 undefined 50 10 36 2.2 59 59 undefined N/A 30.43 1031 N/A 0.00 0.00
6:54 am 06:54 undefined 50 10 36 2.2 59 59 undefined N/A 30.44 1031 N/A 0.00 0.00
7:54 am 07:54 undefined 50 10 36 2.2 59 59 undefined N/A 30.45 1031 N/A 0.00 0.00
8:54 am 08:54 undefined 52 11.1 36 2.2 55 55 undefined N/A 30.47 1032 N/A 0.00 0.00
9:54 am 09:54 undefined 55 12.8 36 2.2 49 49 undefined N/A 30.47 1032 N/A 0.00 0.00
10:54 am 10:54 undefined 57 13.9 38 3.3 49 49 undefined N/A 30.48 1032 N/A 0.00 0.00
11:54 am 11:54 undefined 60 15.6 40 4.4 47 47 undefined N/A 30.48 1032 N/A 0.00 0.00
12:54 pm 12:54 undefined 62 16.7 41 5 46 46 undefined N/A 30.45 1031 N/A 0.00 0.00
1:54 pm 13:54 undefined 64 17.8 40 4.4 41 41 undefined N/A 30.42 1030 N/A 0.00 0.00
2:54 pm 14:54 undefined 65 18.3 42 5.6 43 43 undefined N/A 30.41 1030 N/A 0.00 0.00
3:54 pm 15:54 undefined 63 17.2 36 2.2 37 37 undefined N/A 30.40 1029 N/A 0.00 0.00
4:54 pm 16:54 undefined 63 17.2 40 4.4 43 43 undefined N/A 30.39 1029 N/A 0.00 0.00
5:54 pm 17:54 undefined 63 17.2 41 5 45 45 undefined N/A 30.38 1029 N/A 0.00 0.00
6:54 pm 18:54 undefined 62 16.7 42 5.6 48 48 undefined N/A 30.38 1029 N/A 0.00 0.00
7:54 pm 19:54 undefined 61 16.1 43 6.1 52 52 undefined N/A 30.38 1029 N/A 0.00 0.00
8:54 pm 20:54 undefined 61 16.1 43 6.1 52 52 undefined N/A 30.37 1029 N/A 0.00 0.00
9:54 pm 21:54 undefined 59 15 44 6.7 58 58 undefined N/A 30.38 1029 N/A 0.00 0.00
10:54 pm 22:54 undefined 58 14.4 47 8.3 67 67 undefined N/A 30.38 1029 N/A 0.00 0.00
11:54 pm 23:54 undefined 57 13.9 47 8.3 69 69 undefined N/A 30.38 1029 N/A 0.00 0.00

Powered by AerisWeather